,,PA_Meas_PMT16A,,PR_Meas_QMR101_102,,RH_Meas_QMH101,,SR_Meas_QMS101,,TA_Meas_QMH101,,GenWind,,GenWind,
time,status,PA,status,PR,status,RH,status,SR,status,TA,status,DirAvg,status,SpdAvg,
2012-12-23, 00:00:05,VALID,916.382,VALID,0,VALID,97.0156,VALID,0,VALID,20.0553,VALID,131,VALID,0,
2012-12-23, 00:01:05,VALID,916.394,VALID,0,VALID,97.0385,VALID,0,VALID,20.0553,VALID,129,VALID,0,
2012-12-23, 00:02:05,VALID,916.363,VALID,0,VALID,97.0308,VALID,0,VALID,20.0569,VALID,126,VALID,0,
2012-12-23, 00:03:05,VALID,916.352,VALID,0,VALID,97.0232,VALID,0,VALID,20.0358,VALID,115,VALID,0,
2012-12-23, 00:04:05,VALID,916.36,VALID,0,VALID,97.0232,VALID,0,VALID,20.0163,VALID,114,VALID,0,
2012-12-23, 00:05:05,VALID,916.349,VALID,0,VALID,97.0232,VALID,0,VALID,20.0179,VALID,120,VALID,0,
2012-12-23, 00:06:05,VALID,916.36,VALID,0,VALID,97.0156,VALID,0,VALID,20.0163,VALID,124,VALID,0,
2012-12-23, 00:07:05,VALID,916.383,VALID,0,VALID,97.0308,VALID,0,VALID,20.0163,VALID,108,VALID,0,
2012-12-23, 00:08:05,VALID,916.332,VALID,0,VALID,97.008,VALID,0,VALID,20.0374,VALID,120,VALID,0,
2012-12-23, 00:09:05,VALID,916.382,VALID,0,VALID,97.008,VALID,0,VALID,20.0163,VALID,110,VALID,0,
2012-12-23, 00:10:05,VALID,916.325,VALID,0,VALID,97.0461,VALID,0,VALID,20.0163,VALID,113,VALID,0,
2012-12-23, 00:11:05,VALID,916.339,VALID,0,VALID,97.0156,VALID,0,VALID,20.0163,VALID,120,VALID,0,
2012-12-23, 00:12:05,VALID,916.329,VALID,0,VALID,97.0003,VALID,0,VALID,20.0163,VALID,118,VALID,0,
2012-12-23, 00:13:05,VALID,916.326,VALID,0,VALID,97.0232,VALID,0,VALID,20.0179,VALID,118,VALID,0,
2012-12-23, 00:14:05,VALID,916.314,VALID,0,VALID,97.0232,VALID,0,VALID,19.9968,VALID,118,VALID,0,
2012-12-23, 00:15:05,VALID,916.325,VALID,0,VALID,97.0308,VALID,0,VALID,19.9968,VALID,135,VALID,0,
2012-12-23, 00:16:05,VALID,916.319,VALID,0,VALID,97.0385,VALID,0,VALID,20.0163,VALID,135,VALID,0,
2012-12-23, 00:17:05,VALID,916.304,VALID,0,VALID,97.0308,VALID,0,VALID,20.0163,VALID,132,VALID,0,
2012-12-23, 00:18:05,VALID,916.296,VALID,0,VALID,97.0461,VALID,0,VALID,20.0163,VALID,132,VALID,0,
2012-12-23, 00:19:05,VALID,916.307,VALID,0,VALID,97.0385,VALID,0,VALID,20.0163,VALID,132,VALID,0,
2012-12-23, 00:20:05,VALID,916.29,VALID,0,VALID,97.069,VALID,0,VALID,19.9984,VALID,132,VALID,0,
2012-12-23, 00:21:05,VALID,916.266,VALID,0,VALID,97.0537,VALID,0,VALID,19.9773,VALID,122,VALID,0,
2012-12-23, 00:22:05,VALID,916.267,VALID,0,VALID,97.069,VALID,0,VALID,19.9968,VALID,122,VALID,0,
2012-12-23, 00:23:05,VALID,916.283,VALID,0,VALID,97.0842,VALID,0,VALID,19.9578,VALID,122,VALID,0,
2012-12-23, 00:24:05,VALID,916.271,VALID,0,VALID,97.0766,VALID,0,VALID,19.9788,VALID,122,VALID,0,
2012-12-23, 00:25:05,VALID,916.248,VALID,0,VALID,97.069,VALID,0.107441,VALID,19.9578,VALID,122,VALID,0,
2012-12-23, 00:26:05,VALID,916.263,VALID,0,VALID,97.0842,VALID,0,VALID,19.9788,VALID,122,VALID,0,
2012-12-23, 00:27:05,VALID,916.274,VALID,0,VALID,97.0766,VALID,0,VALID,19.9773,VALID,122,VALID,0,
2012-12-23, 00:28:05,VALID,916.25,VALID,0,VALID,97.0766,VALID,0,VALID,19.9563,VALID,123,VALID,0,
2012-12-23, 00:29:05,VALID,916.219,VALID,0,VALID,97.0918,VALID,0,VALID,19.9563,VALID,123,VALID,0,
2012-12-23, 00:30:05,VALID,916.253,VALID,0,VALID,97.0994,VALID,0,VALID,19.9968,VALID,122,VALID,0,
2012-12-23, 00:31:05,VALID,916.22,VALID,0,VALID,97.0766,VALID,0,VALID,19.9773,VALID,123,VALID,0,
2012-12-23, 00:32:05,VALID,916.201,VALID,0,VALID,97.0994,VALID,0,VALID,19.9968,VALID,123,VALID,0,
2012-12-23, 00:33:05,VALID,916.197,VALID,0,VALID,97.1071,VALID,0,VALID,20.0179,VALID,123,VALID,0,
2012-12-23, 00:34:05,VALID,916.167,VALID,0,VALID,97.1071,VALID,0,VALID,20.0163,VALID,122,VALID,0,
2012-12-23, 00:35:05,VALID,916.175,VALID,0,VALID,97.1071,VALID,0,VALID,19.9968,VALID,122,VALID,0,
2012-12-23, 00:36:05,VALID,916.147,VALID,0,VALID,97.1223,VALID,0,VALID,20.0179,VALID,122,VALID,0,
2012-12-23, 00:37:05,VALID,916.162,VALID,0,VALID,97.1147,VALID,0,VALID,20.0374,VALID,122,VALID,0,
2012-12-23, 00:38:05,VALID,916.141,VALID,0,VALID,97.1147,VALID,0,VALID,19.9968,VALID,123,VALID,0,
2012-12-23, 00:39:05,VALID,916.154,VALID,0,VALID,97.1223,VALID,0,VALID,19.9968,VALID,122,VALID,0,
2012-12-23, 00:40:05,VALID,916.135,VALID,0,VALID,97.1071,VALID,0,VALID,20.0179,VALID,123,VALID,0,
2012-12-23, 00:41:05,VALID,916.13,VALID,0,VALID,97.1223,VALID,0,VALID,19.9773,VALID,123,VALID,0,
2012-12-23, 00:42:05,VALID,916.137,VALID,0,VALID,97.0994,VALID,0,VALID,19.9773,VALID,122,VALID,0,
2012-12-23, 00:43:05,VALID,916.141,VALID,0,VALID,97.1299,VALID,0,VALID,19.9773,VALID,122,VALID,0,
2012-12-23, 00:44:05,VALID,916.152,VALID,0,VALID,97.1223,VALID,0,VALID,19.9968,VALID,123,VALID,0,
2012-12-23, 00:45:05,VALID,916.136,VALID,0,VALID,97.1223,VALID,0,VALID,19.9758,VALID,123,VALID,0,
2012-12-23, 00:46:05,VALID,916.139,VALID,0,VALID,97.1528,VALID,0,VALID,19.9758,VALID,122,VALID,0,
2012-12-23, 00:47:05,VALID,916.119,VALID,0,VALID,97.1299,VALID,0,VALID,19.9773,VALID,122,VALID,0,
2012-12-23, 00:48:05,VALID,916.142,VALID,0,VALID,97.1452,VALID,0,VALID,19.9953,VALID,122,VALID,0,
2012-12-23, 00:49:05,VALID,916.112,VALID,0,VALID,97.1452,VALID,0,VALID,20.0163,VALID,122,VALID,0,
2012-12-23, 00:50:05,VALID,916.139,VALID,0,VALID,97.1528,VALID,0,VALID,20.0148,VALID,122,VALID,0,
2012-12-23, 00:51:05,VALID,916.134,VALID,0,VALID,97.1452,VALID,0,VALID,20.0374,VALID,122,VALID,0,
2012-12-23, 00:52:05,VALID,916.11,VALID,0,VALID,97.1528,VALID,0,VALID,20.0374,VALID,122,VALID,0,
2012-12-23, 00:53:05,VALID,916.109,VALID,0,VALID,97.1681,VALID,0,VALID,20.0358,VALID,122,VALID,0,
2012-12-23, 00:54:05,VALID,916.1,VALID,0,VALID,97.1528,VALID,0,VALID,20.0553,VALID,122,VALID,0,
2012-12-23, 00:55:05,VALID,916.104,VALID,0,VALID,97.1681,VALID,0,VALID,20.0553,VALID,122,VALID,0,
2012-12-23, 00:56:05,VALID,916.058,VALID,0,VALID,97.1757,VALID,0,VALID,20.0358,VALID,122,VALID,0,
2012-12-23, 00:57:05,VALID,916.064,VALID,0,VALID,97.1681,VALID,0,VALID,20.0374,VALID,122,VALID,0,
2012-12-23, 00:58:04,VALID,916.076,VALID,0,VALID,97.1604,VALID,0,VALID,20.0374,VALID,123,VALID,0,
2012-12-23, 00:59:04,VALID,916.072,VALID,0,VALID,97.1681,VALID,0,VALID,20.0358,VALID,122,VALID,0,
2012-12-23, 01:00:04,VALID,916.059,VALID,0,VALID,97.1604,VALID,0,VALID,20.0163,VALID,123,VALID,0,
2012-12-23, 01:01:04,VALID,916.078,VALID,0,VALID,97.1681,VALID,0,VALID,19.9953,VALID,122,VALID,0,
2012-12-23, 01:02:04,VALID,916.062,VALID,0,VALID,97.1757,VALID,0,VALID,20.0163,VALID,123,VALID,0,
2012-12-23, 01:03:04,VALID,916.066,VALID,0,VALID,97.1757,VALID,0,VALID,20.0389,VALID,123,VALID,0,
2012-12-23, 01:04:04,VALID,916.071,VALID,0,VALID,97.1833,VALID,0,VALID,19.9968,VALID,122,VALID,0,
2012-12-23, 01:05:04,VALID,916.065,VALID,0,VALID,97.1833,VALID,0,VALID,20.0163,VALID,122,VALID,0,
2012-12-23, 01:06:04,VALID,916.083,VALID,0,VALID,97.1681,VALID,0,VALID,19.9563,VALID,122,VALID,0,
2012-12-23, 01:07:04,VALID,916.052,VALID,0,VALID,97.1681,VALID,0,VALID,19.9578,VALID,122,VALID,0,
2012-12-23, 01:08:04,VALID,916.034,VALID,0,VALID,97.1833,VALID,0,VALID,19.9383,VALID,123,VALID,0,
2012-12-23, 01:09:04,VALID,916.028,VALID,0,VALID,97.1757,VALID,0,VALID,19.9188,VALID,123,VALID,0,
2012-12-23, 01:10:04,VALID,916.024,VALID,0,VALID,97.1909,VALID,0,VALID,19.9188,VALID,123,VALID,0,
2012-12-23, 01:11:04,VALID,916.061,VALID,0,VALID,97.1757,VALID,0,VALID,19.9008,VALID,122,VALID,0,
2012-12-23, 01:12:04,VALID,916.024,VALID,0,VALID,97.1757,VALID,0,VALID,19.8603,VALID,122,VALID,0,
2012-12-23, 01:13:04,VALID,915.978,VALID,0,VALID,97.1604,VALID,0,VALID,19.8408,VALID,122,VALID,0,
2012-12-23, 01:14:04,VALID,915.988,VALID,0,VALID,97.1757,VALID,0,VALID,19.8018,VALID,122,VALID,0,
2012-12-23, 01:15:04,VALID,915.952,VALID,0,VALID,97.1604,VALID,0,VALID,19.8018,VALID,122,VALID,0,
2012-12-23, 01:16:04,VALID,915.963,VALID,0,VALID,97.1833,VALID,0,VALID,19.7838,VALID,122,VALID,0,
2012-12-23, 01:17:04,VALID,915.94,VALID,0,VALID,97.1909,VALID,0,VALID,19.7628,VALID,122,VALID,0,
2012-12-23, 01:18:04,VALID,915.894,VALID,0,VALID,97.1833,VALID,0,VALID,19.7223,VALID,122,VALID,0,
2012-12-23, 01:19:04,VALID,915.916,VALID,0,VALID,97.2062,VALID,0,VALID,19.7643,VALID,122,VALID,0,
2012-12-23, 01:20:04,VALID,915.9,VALID,0,VALID,97.1909,VALID,0.107441,VALID,19.7448,VALID,122,VALID,0,
2012-12-23, 01:21:04,VALID,915.882,VALID,0,VALID,97.2062,VALID,0,VALID,19.7643,VALID,123,VALID,0,
2012-12-23, 01:22:04,VALID,915.885,VALID,0,VALID,97.1986,VALID,0,VALID,19.6848,VALID,123,VALID,0,
2012-12-23, 01:23:04,VALID,915.84,VALID,0,VALID,97.2214,VALID,0,VALID,19.6848,VALID,123,VALID,0,
2012-12-23, 01:24:04,VALID,915.828,VALID,0,VALID,97.2214,VALID,0,VALID,19.6848,VALID,122,VALID,0,
2012-12-23, 01:25:04,VALID,915.817,VALID,0,VALID,97.229,VALID,0,VALID,19.7463,VALID,122,VALID,0,
2012-12-23, 01:26:04,VALID,915.81,VALID,0,VALID,97.2367,VALID,0,VALID,19.7238,VALID,122,VALID,0,
2012-12-23, 01:27:04,VALID,915.786,VALID,0,VALID,97.2443,VALID,0,VALID,19.6833,VALID,122,VALID,0,
2012-12-23, 01:28:04,VALID,915.781,VALID,0,VALID,97.229,VALID,0,VALID,19.6848,VALID,122,VALID,0,
2012-12-23, 01:29:04,VALID,915.752,VALID,0,VALID,97.2367,VALID,0,VALID,19.7238,VALID,122,VALID,0,
2012-12-23, 01:30:04,VALID,915.723,VALID,0,VALID,97.2519,VALID,0,VALID,19.7238,VALID,122,VALID,0,
2012-12-23, 01:31:04,VALID,915.7,VALID,0,VALID,97.2672,VALID,0,VALID,19.7238,VALID,118,VALID,0,
2012-12-23, 01:32:04,VALID,915.685,VALID,0,VALID,97.2443,VALID,0,VALID,19.7448,VALID,118,VALID,0,
2012-12-23, 01:33:04,VALID,915.683,VALID,0,VALID,97.2519,VALID,0,VALID,19.7043,VALID,118,VALID,0,
2012-12-23, 01:34:04,VALID,915.642,VALID,0,VALID,97.2824,VALID,0,VALID,19.7043,VALID,118,VALID,0,
2012-12-23, 01:35:04,VALID,915.608,VALID,0,VALID,97.2748,VALID,0,VALID,19.7238,VALID,128,VALID,0,
2012-12-23, 01:36:04,VALID,915.581,VALID,0,VALID,97.2595,VALID,0,VALID,19.7448,VALID,125,VALID,0,
2012-12-23, 01:37:04,VALID,915.56,VALID,0,VALID,97.2748,VALID,0,VALID,19.6623,VALID,124,VALID,0,
2012-12-23, 01:38:04,VALID,915.539,VALID,0,VALID,97.2824,VALID,0,VALID,19.7043,VALID,124,VALID,0,
2012-12-23, 01:39:04,VALID,915.539,VALID,0,VALID,97.2824,VALID,0,VALID,19.7043,VALID,124,VALID,0,
2012-12-23, 01:40:04,VALID,915.521,VALID,0,VALID,97.2748,VALID,0,VALID,19.7043,VALID,124,VALID,0,
2012-12-23, 01:41:04,VALID,915.497,VALID,0,VALID,97.29,VALID,0,VALID,19.6848,VALID,124,VALID,0,
2012-12-23, 01:42:04,VALID,915.504,VALID,0,VALID,97.29,VALID,0,VALID,19.6863,VALID,112,VALID,0,
2012-12-23, 01:43:04,VALID,915.472,VALID,0,VALID,97.3053,VALID,0,VALID,19.6848,VALID,112,VALID,0,
2012-12-23, 01:44:04,VALID,915.477,VALID,0,VALID,97.2824,VALID,0,VALID,19.6848,VALID,112,VALID,0,
2012-12-23, 01:45:04,VALID,915.427,VALID,0,VALID,97.3053,VALID,0,VALID,19.7058,VALID,112,VALID,0,
2012-12-23, 01:46:04,VALID,915.392,VALID,0,VALID,97.29,VALID,0,VALID,19.6863,VALID,112,VALID,0,
2012-12-23, 01:47:04,VALID,915.412,VALID,0,VALID,97.3053,VALID,0,VALID,19.6653,VALID,112,VALID,0,
2012-12-23, 01:48:04,VALID,915.385,VALID,0,VALID,97.3053,VALID,0,VALID,19.6653,VALID,112,VALID,0,
2012-12-23, 01:49:04,VALID,915.35,VALID,0,VALID,97.3053,VALID,0,VALID,19.6668,VALID,112,VALID,0,
2012-12-23, 01:50:04,VALID,915.36,VALID,0,VALID,97.3053,VALID,0,VALID,19.6668,VALID,112,VALID,0,
2012-12-23, 01:51:04,VALID,915.314,VALID,0,VALID,97.2977,VALID,0,VALID,19.6263,VALID,112,VALID,0,
2012-12-23, 01:52:04,VALID,915.32,VALID,0,VALID,97.3129,VALID,0,VALID,19.6263,VALID,112,VALID,0,
2012-12-23, 01:53:04,VALID,915.282,VALID,0,VALID,97.3281,VALID,0,VALID,19.6458,VALID,112,VALID,0,
2012-12-23, 01:54:04,VALID,915.245,VALID,0,VALID,97.3205,VALID,0,VALID,19.6458,VALID,112,VALID,0,
2012-12-23, 01:55:04,VALID,915.235,VALID,0,VALID,97.3129,VALID,0,VALID,19.6458,VALID,112,VALID,0,
2012-12-23, 01:56:04,VALID,915.236,VALID,0,VALID,97.3358,VALID,0,VALID,19.6458,VALID,113,VALID,0,
2012-12-23, 01:57:04,VALID,915.216,VALID,0,VALID,97.3281,VALID,0,VALID,19.6458,VALID,113,VALID,0,
2012-12-23, 01:58:04,VALID,915.226,VALID,0,VALID,97.3358,VALID,0,VALID,19.6653,VALID,113,VALID,0,
2012-12-23, 01:59:04,VALID,915.2,VALID,0,VALID,97.3281,VALID,0,VALID,19.6458,VALID,112,VALID,0,
2012-12-23, 02:00:04,VALID,915.186,VALID,0,VALID,97.3281,VALID,0,VALID,19.6458,VALID,113,VALID,0,
2012-12-23, 02:01:04,VALID,915.174,VALID,0,VALID,97.351,VALID,0,VALID,19.6458,VALID,113,VALID,0,
2012-12-23, 02:02:04,VALID,915.154,VALID,0,VALID,97.351,VALID,0,VALID,19.6458,VALID,113,VALID,0,
2012-12-23, 02:03:04,VALID,915.14,VALID,0,VALID,97.3281,VALID,0,VALID,19.6458,VALID,113,VALID,0,
2012-12-23, 02:04:04,VALID,915.066,VALID,0,VALID,97.3586,VALID,0,VALID,19.6263,VALID,112,VALID,0,
2012-12-23, 02:05:04,VALID,915.11,VALID,0,VALID,97.3586,VALID,0,VALID,19.6263,VALID,112,VALID,0,
2012-12-23, 02:06:04,VALID,915.078,VALID,0,VALID,97.351,VALID,0,VALID,19.6068,VALID,113,VALID,0,
2012-12-23, 02:07:04,VALID,915.057,VALID,0,VALID,97.351,VALID,0,VALID,19.6458,VALID,113,VALID,0,
2012-12-23, 02:08:04,VALID,915.025,VALID,0,VALID,97.3815,VALID,0,VALID,19.6458,VALID,113,VALID,0,
2012-12-23, 02:09:04,VALID,915.023,VALID,0,VALID,97.3739,VALID,0,VALID,19.6458,VALID,112,VALID,0,
2012-12-23, 02:10:04,VALID,914.978,VALID,0,VALID,97.3663,VALID,0,VALID,19.6263,VALID,112,VALID,0,
2012-12-23, 02:11:04,VALID,914.97,VALID,0,VALID,97.3663,VALID,0,VALID,19.6068,VALID,113,VALID,0,
2012-12-23, 02:12:04,VALID,914.968,VALID,0,VALID,97.3815,VALID,0,VALID,19.5873,VALID,112,VALID,0,
2012-12-23, 02:13:04,VALID,914.968,VALID,0,VALID,97.3739,VALID,0.107441,VALID,19.5678,VALID,113,VALID,0,
2012-12-23, 02:14:04,VALID,914.977,VALID,0,VALID,97.3663,VALID,0,VALID,19.5483,VALID,113,VALID,0,
2012-12-23, 02:15:04,VALID,914.98,VALID,0,VALID,97.3739,VALID,0,VALID,19.5693,VALID,112,VALID,0,
2012-12-23, 02:16:04,VALID,914.938,VALID,0,VALID,97.3739,VALID,0,VALID,19.5498,VALID,113,VALID,0,
2012-12-23, 02:17:04,VALID,914.949,VALID,0,VALID,97.3815,VALID,0,VALID,19.5093,VALID,113,VALID,0,
2012-12-23, 02:18:04,VALID,914.927,VALID,0,VALID,97.3891,VALID,0,VALID,19.4898,VALID,113,VALID,0,
2012-12-23, 02:19:04,VALID,914.931,VALID,0,VALID,97.3968,VALID,0,VALID,19.4703,VALID,113,VALID,0,
2012-12-23, 02:20:04,VALID,914.911,VALID,0,VALID,97.3663,VALID,0,VALID,19.4913,VALID,112,VALID,0,
2012-12-23, 02:21:04,VALID,914.905,VALID,0,VALID,97.3891,VALID,0,VALID,19.4718,VALID,113,VALID,0,
2012-12-23, 02:22:04,VALID,914.907,VALID,0,VALID,97.3968,VALID,0,VALID,19.4523,VALID,113,VALID,0,
2012-12-23, 02:23:04,VALID,914.889,VALID,0,VALID,97.4044,VALID,0,VALID,19.4523,VALID,113,VALID,0,
2012-12-23, 02:24:04,VALID,914.88,VALID,0,VALID,97.3968,VALID,0,VALID,19.4118,VALID,112,VALID,0,
2012-12-23, 02:25:04,VALID,914.832,VALID,0,VALID,97.4196,VALID,0,VALID,19.4327,VALID,113,VALID,0,
2012-12-23, 02:26:04,VALID,914.827,VALID,0,VALID,97.4044,VALID,0,VALID,19.4327,VALID,113,VALID,0,
2012-12-23, 02:27:04,VALID,914.81,VALID,0,VALID,97.4196,VALID,0,VALID,19.4118,VALID,113,VALID,0,
2012-12-23, 02:28:04,VALID,914.807,VALID,0,VALID,97.4044,VALID,0,VALID,19.4327,VALID,113,VALID,0,
2012-12-23, 02:29:04,VALID,914.808,VALID,0,VALID,97.412,VALID,0,VALID,19.4342,VALID,113,VALID,0,
2012-12-23, 02:30:04,VALID,914.802,VALID,0,VALID,97.412,VALID,0,VALID,19.3923,VALID,113,VALID,0,
2012-12-23, 02:31:04,VALID,914.767,VALID,0,VALID,97.4044,VALID,0,VALID,19.3937,VALID,113,VALID,0,
2012-12-23, 02:32:04,VALID,914.776,VALID,0,VALID,97.4273,VALID,0,VALID,19.3937,VALID,113,VALID,0,
2012-12-23, 02:33:04,VALID,914.805,VALID,0,VALID,97.4425,VALID,0,VALID,19.3323,VALID,113,VALID,0,
2012-12-23, 02:34:04,VALID,914.769,VALID,0,VALID,97.4196,VALID,0,VALID,19.3323,VALID,115,VALID,0,
2012-12-23, 02:35:04,VALID,914.751,VALID,0,VALID,97.4349,VALID,0,VALID,19.3533,VALID,115,VALID,0,
2012-12-23, 02:36:04,VALID,914.758,VALID,0,VALID,97.4349,VALID,0,VALID,19.3547,VALID,115,VALID,0,
2012-12-23, 02:37:04,VALID,914.745,VALID,0,VALID,97.4349,VALID,0,VALID,19.3143,VALID,115,VALID,0,
2012-12-23, 02:38:04,VALID,914.732,VALID,0,VALID,97.4349,VALID,0,VALID,19.2528,VALID,115,VALID,0,
2012-12-23, 02:39:04,VALID,914.732,VALID,0,VALID,97.4501,VALID,0,VALID,19.2948,VALID,115,VALID,0,
2012-12-23, 02:40:04,VALID,914.737,VALID,0,VALID,97.4425,VALID,0,VALID,19.2948,VALID,115,VALID,0,
2012-12-23, 02:41:04,VALID,914.725,VALID,0,VALID,97.4501,VALID,0,VALID,19.2753,VALID,115,VALID,0,
2012-12-23, 02:42:04,VALID,914.701,VALID,0,VALID,97.4501,VALID,0,VALID,19.3172,VALID,115,VALID,0,
2012-12-23, 02:43:04,VALID,914.716,VALID,0,VALID,97.4654,VALID,0,VALID,19.2977,VALID,115,VALID,0,
2012-12-23, 02:44:04,VALID,914.718,VALID,0,VALID,97.4654,VALID,0,VALID,19.2767,VALID,115,VALID,0,
2012-12-23, 02:45:04,VALID,914.711,VALID,0,VALID,97.4577,VALID,0,VALID,19.2572,VALID,115,VALID,0,
2012-12-23, 02:46:04,VALID,914.68,VALID,0,VALID,97.4577,VALID,0,VALID,19.2377,VALID,115,VALID,0,
2012-12-23, 02:47:04,VALID,914.662,VALID,0,VALID,97.4425,VALID,0,VALID,19.1973,VALID,115,VALID,0,
2012-12-23, 02:48:04,VALID,914.68,VALID,0.2,VALID,97.4654,VALID,0,VALID,19.2182,VALID,115,VALID,0,
2012-12-23, 02:49:04,VALID,914.68,VALID,0,VALID,97.4882,VALID,0,VALID,19.1778,VALID,115,VALID,0,
2012-12-23, 02:50:04,VALID,914.694,VALID,0,VALID,97.473,VALID,0,VALID,19.1973,VALID,115,VALID,0,
2012-12-23, 02:51:04,VALID,914.681,VALID,0,VALID,97.4806,VALID,0,VALID,19.2392,VALID,115,VALID,0,
2012-12-23, 02:52:04,VALID,914.696,VALID,0,VALID,97.4577,VALID,0,VALID,19.1763,VALID,115,VALID,0,
2012-12-23, 02:53:04,VALID,914.671,VALID,0,VALID,97.4806,VALID,0,VALID,19.1778,VALID,116,VALID,0,
2012-12-23, 02:54:04,VALID,914.694,VALID,0,VALID,97.4577,VALID,0,VALID,19.1359,VALID,115,VALID,0,
2012-12-23, 02:55:04,VALID,914.679,VALID,0,VALID,97.4806,VALID,0,VALID,19.1583,VALID,115,VALID,0,
2012-12-23, 02:56:04,VALID,914.66,VALID,0,VALID,97.4577,VALID,0,VALID,19.1402,VALID,115,VALID,0,
2012-12-23, 02:57:04,VALID,914.673,VALID,0,VALID,97.473,VALID,0,VALID,19.0998,VALID,115,VALID,0,
2012-12-23, 02:58:04,VALID,914.675,VALID,0,VALID,97.4806,VALID,0,VALID,19.1207,VALID,115,VALID,0,
2012-12-23, 02:59:04,VALID,914.659,VALID,0,VALID,97.473,VALID,0,VALID,19.1012,VALID,115,VALID,0,
2012-12-23, 03:00:04,VALID,914.684,VALID,0,VALID,97.4882,VALID,0,VALID,19.1012,VALID,115,VALID,0,
2012-12-23, 03:01:04,VALID,914.677,VALID,0,VALID,97.4806,VALID,0,VALID,19.1388,VALID,115,VALID,0,
2012-12-23, 03:02:04,VALID,914.661,VALID,0,VALID,97.5035,VALID,0,VALID,19.1778,VALID,115,VALID,0,
2012-12-23, 03:03:04,VALID,914.692,VALID,0,VALID,97.4959,VALID,0,VALID,19.2182,VALID,115,VALID,0,
2012-12-23, 03:04:04,VALID,914.683,VALID,0,VALID,97.5035,VALID,0,VALID,19.2168,VALID,115,VALID,0,
2012-12-23, 03:05:04,VALID,914.663,VALID,0,VALID,97.4806,VALID,0,VALID,19.2572,VALID,115,VALID,0,
2012-12-23, 03:06:04,VALID,914.692,VALID,0,VALID,97.4882,VALID,0,VALID,19.2572,VALID,115,VALID,0,
2012-12-23, 03:07:04,VALID,914.672,VALID,0,VALID,97.5035,VALID,0,VALID,19.2168,VALID,115,VALID,0,
2012-12-23, 03:08:04,VALID,914.667,VALID,0,VALID,97.5111,VALID,0,VALID,19.1973,VALID,115,VALID,0,
2012-12-23, 03:09:04,VALID,914.668,VALID,0,VALID,97.5035,VALID,0,VALID,19.1987,VALID,116,VALID,0,
2012-12-23, 03:10:04,VALID,914.653,VALID,0,VALID,97.5035,VALID,0,VALID,19.1792,VALID,115,VALID,0,
2012-12-23, 03:11:04,VALID,914.657,VALID,0,VALID,97.5111,VALID,0,VALID,19.1792,VALID,115,VALID,0,
2012-12-23, 03:12:04,VALID,914.673,VALID,0,VALID,97.5035,VALID,0,VALID,19.1583,VALID,115,VALID,0,
2012-12-23, 03:13:04,VALID,914.659,VALID,0,VALID,97.5111,VALID,0,VALID,19.1987,VALID,115,VALID,0,
2012-12-23, 03:14:04,VALID,914.66,VALID,0,VALID,97.5111,VALID,0,VALID,19.1778,VALID,115,VALID,0,
2012-12-23, 03:15:04,VALID,914.648,VALID,0,VALID,97.5111,VALID,0,VALID,19.1583,VALID,115,VALID,0,
2012-12-23, 03:16:04,VALID,914.655,VALID,0,VALID,97.5035,VALID,0,VALID,19.1207,VALID,115,VALID,0,
2012-12-23, 03:17:04,VALID,914.67,VALID,0,VALID,97.5035,VALID,0,VALID,19.1012,VALID,115,VALID,0,
2012-12-23, 03:18:04,VALID,914.634,VALID,0,VALID,97.5264,VALID,0,VALID,19.0817,VALID,115,VALID,0,
2012-12-23, 03:19:04,VALID,914.616,VALID,0,VALID,97.5111,VALID,0,VALID,19.0817,VALID,115,VALID,0,
2012-12-23, 03:20:04,VALID,914.615,VALID,0,VALID,97.5264,VALID,0,VALID,19.0413,VALID,115,VALID,0,
2012-12-23, 03:21:04,VALID,914.577,VALID,0,VALID,97.5187,VALID,0,VALID,19.0427,VALID,115,VALID,0,
2012-12-23, 03:22:04,VALID,914.586,VALID,0,VALID,97.5264,VALID,0,VALID,19.0023,VALID,112,VALID,0,
2012-12-23, 03:23:04,VALID,914.54,VALID,0,VALID,97.5264,VALID,0,VALID,19.0218,VALID,112,VALID,0,
2012-12-23, 03:24:04,VALID,914.531,VALID,0,VALID,97.5416,VALID,0,VALID,19.0218,VALID,112,VALID,0,
2012-12-23, 03:25:04,VALID,914.538,VALID,0,VALID,97.5569,VALID,0,VALID,19.0023,VALID,112,VALID,0,
2012-12-23, 03:26:04,VALID,914.533,VALID,0,VALID,97.5416,VALID,0,VALID,18.9828,VALID,112,VALID,0,
2012-12-23, 03:27:04,VALID,914.491,VALID,0,VALID,97.5492,VALID,0,VALID,18.9633,VALID,112,VALID,0,
2012-12-23, 03:28:04,VALID,914.469,VALID,0,VALID,97.5416,VALID,0,VALID,18.9633,VALID,112,VALID,0,
2012-12-23, 03:29:04,VALID,914.488,VALID,0,VALID,97.534,VALID,0,VALID,18.9842,VALID,112,VALID,0,
2012-12-23, 03:30:04,VALID,914.476,VALID,0,VALID,97.5645,VALID,0,VALID,18.9647,VALID,112,VALID,0,
2012-12-23, 03:31:04,VALID,914.495,VALID,0,VALID,97.534,VALID,0,VALID,18.9243,VALID,112,VALID,0,
2012-12-23, 03:32:04,VALID,914.474,VALID,0,VALID,97.5416,VALID,0,VALID,18.9452,VALID,112,VALID,0,
2012-12-23, 03:33:04,VALID,914.478,VALID,0,VALID,97.5569,VALID,0,VALID,18.9243,VALID,112,VALID,0,
2012-12-23, 03:34:04,VALID,914.474,VALID,0,VALID,97.5492,VALID,0,VALID,18.9243,VALID,112,VALID,0,
2012-12-23, 03:35:04,VALID,914.49,VALID,0,VALID,97.5416,VALID,0,VALID,18.9243,VALID,112,VALID,0,
2012-12-23, 03:36:04,VALID,914.509,VALID,0,VALID,97.5569,VALID,0,VALID,18.9048,VALID,112,VALID,0,
2012-12-23, 03:37:04,VALID,914.488,VALID,0,VALID,97.5416,VALID,0,VALID,18.9062,VALID,112,VALID,0,
2012-12-23, 03:38:04,VALID,914.49,VALID,0,VALID,97.5492,VALID,0,VALID,18.9467,VALID,112,VALID,0,
2012-12-23, 03:39:04,VALID,914.478,VALID,0,VALID,97.5492,VALID,0,VALID,18.9048,VALID,112,VALID,0,
2012-12-23, 03:40:04,VALID,914.498,VALID,0,VALID,97.5569,VALID,0,VALID,18.9257,VALID,112,VALID,0,
2012-12-23, 03:41:04,VALID,914.474,VALID,0,VALID,97.5492,VALID,0,VALID,18.9062,VALID,112,VALID,0,
2012-12-23, 03:42:04,VALID,914.469,VALID,0,VALID,97.5569,VALID,0,VALID,18.9048,VALID,112,VALID,0,
2012-12-23, 03:43:04,VALID,914.453,VALID,0,VALID,97.5492,VALID,0,VALID,18.9452,VALID,112,VALID,0,
2012-12-23, 03:44:04,VALID,914.471,VALID,0,VALID,97.5492,VALID,0,VALID,18.9452,VALID,112,VALID,0,
2012-12-23, 03:45:04,VALID,914.452,VALID,0,VALID,97.5569,VALID,0,VALID,18.9257,VALID,112,VALID,0,
2012-12-23, 03:46:04,VALID,914.43,VALID,0,VALID,97.5569,VALID,0,VALID,18.9257,VALID,112,VALID,0,
2012-12-23, 03:47:04,VALID,914.482,VALID,0,VALID,97.534,VALID,0,VALID,18.8867,VALID,129,VALID,0,
2012-12-23, 03:48:04,VALID,914.445,VALID,0,VALID,97.5569,VALID,0,VALID,18.8672,VALID,145,VALID,0,
2012-12-23, 03:49:04,VALID,914.447,VALID,0,VALID,97.5645,VALID,0,VALID,18.8672,VALID,145,VALID,0,
2012-12-23, 03:50:04,VALID,914.428,VALID,0,VALID,97.5645,VALID,0,VALID,18.8867,VALID,145,VALID,0,
2012-12-23, 03:51:04,VALID,914.417,VALID,0,VALID,97.5416,VALID,0,VALID,18.8867,VALID,145,VALID,0,
2012-12-23, 03:52:04,VALID,914.415,VALID,0,VALID,97.5569,VALID,0,VALID,18.8867,VALID,145,VALID,0,
2012-12-23, 03:53:04,VALID,914.381,VALID,0,VALID,97.5721,VALID,0,VALID,18.8658,VALID,145,VALID,0,
2012-12-23, 03:54:04,VALID,914.404,VALID,0,VALID,97.5645,VALID,0,VALID,18.9257,VALID,145,VALID,0,
2012-12-23, 03:55:04,VALID,914.379,VALID,0,VALID,97.5721,VALID,0,VALID,18.9452,VALID,145,VALID,0,
2012-12-23, 03:56:04,VALID,914.414,VALID,0,VALID,97.5492,VALID,0,VALID,18.9647,VALID,148,VALID,0,
2012-12-23, 03:57:04,VALID,914.404,VALID,0,VALID,97.5797,VALID,0,VALID,18.9842,VALID,153,VALID,0,
2012-12-23, 03:58:04,VALID,914.41,VALID,0,VALID,97.5721,VALID,0,VALID,18.9842,VALID,161,VALID,0,
2012-12-23, 03:59:04,VALID,914.415,VALID,0,VALID,97.5797,VALID,0,VALID,19.0037,VALID,168,VALID,0,